TimeEST,TemperatureF,Dew PointF,Humidity,Sea Level PressureIn,VisibilityMPH,Wind Direction,Wind SpeedMPH,Gust SpeedMPH,PrecipitationIn,Events,Conditions,WindDirDegrees,DateUTC
12:16 AM,40.5,28.0,61,30.26,10.0,North,10.4,-,N/A,,Mostly Cloudy,10,2013-03-09 05:16:00
12:36 AM,40.3,27.5,60,30.26,10.0,North,9.2,-,N/A,,Mostly Cloudy,10,2013-03-09 05:36:00
12:56 AM,40.3,27.3,60,30.27,10.0,North,10.4,16.1,N/A,,Mostly Cloudy,10,2013-03-09 05:56:00
1:16 AM,39.9,26.8,59,30.26,10.0,NNE,10.4,-,N/A,,Mostly Cloudy,20,2013-03-09 06:16:00
1:36 AM,38.8,26.8,62,30.27,10.0,North,6.9,-,N/A,,Scattered Clouds,360,2013-03-09 06:36:00
1:56 AM,38.5,26.6,62,30.27,10.0,North,9.2,-,N/A,,Clear,350,2013-03-09 06:56:00
2:16 AM,38.1,26.4,63,30.27,10.0,North,8.1,-,N/A,,Clear,360,2013-03-09 07:16:00
2:36 AM,37.4,26.2,64,30.28,10.0,North,9.2,-,N/A,,Clear,350,2013-03-09 07:36:00
2:56 AM,37.0,26.6,66,30.27,10.0,North,8.1,-,N/A,,Clear,350,2013-03-09 07:56:00
3:16 AM,37.0,25.7,64,30.26,10.0,North,6.9,-,N/A,,Clear,10,2013-03-09 08:16:00
3:36 AM,36.7,26.2,66,30.26,10.0,North,6.9,-,N/A,,Clear,10,2013-03-09 08:36:00
3:56 AM,36.5,25.9,65,30.27,10.0,North,6.9,-,N/A,,Clear,360,2013-03-09 08:56:00
4:16 AM,35.8,25.7,67,30.28,10.0,NNW,8.1,-,N/A,,Clear,340,2013-03-09 09:16:00
4:36 AM,36.1,25.5,65,30.28,10.0,North,8.1,-,N/A,,Clear,350,2013-03-09 09:36:00
4:56 AM,35.2,26.2,70,30.29,10.0,North,6.9,-,N/A,,Clear,350,2013-03-09 09:56:00
5:16 AM,35.8,25.9,67,30.29,10.0,North,8.1,-,N/A,,Clear,360,2013-03-09 10:16:00
5:36 AM,35.6,25.5,67,30.29,10.0,North,6.9,-,N/A,,Clear,360,2013-03-09 10:36:00
5:53 AM,35.6,24.8,65,30.30,10.0,NNW,6.9,-,N/A,,Clear,340,2013-03-09 10:53:00
5:56 AM,35.4,25.5,67,30.30,10.0,North,5.8,-,N/A,,Clear,350,2013-03-09 10:56:00
6:16 AM,35.1,25.7,69,30.31,10.0,North,6.9,-,N/A,,Clear,350,2013-03-09 11:16:00
6:36 AM,34.3,25.7,71,30.31,10.0,North,6.9,-,N/A,,Clear,350,2013-03-09 11:36:00
6:41 AM,34.7,25.7,70,30.31,10.0,North,5.8,-,N/A,,Clear,360,2013-03-09 11:41:00
6:53 AM,35.6,26.6,70,30.32,10.0,NNW,6.9,-,N/A,,Clear,340,2013-03-09 11:53:00
7:53 AM,39.2,26.6,61,30.33,10.0,North,11.5,17.3,N/A,,Clear,350,2013-03-09 12:53:00
9:56 AM,46.4,28.4,50,30.35,10.0,NNW,8.1,-,N/A,,Clear,330,2013-03-09 14:56:00
10:52 AM,46.4,28.4,50,30.35,10.0,NW,9.2,-,N/A,,Clear,320,2013-03-09 15:52:00
11:54 AM,50.0,28.4,43,30.34,10.0,NNW,8.1,-,N/A,,Clear,330,2013-03-09 16:54:00
12:46 PM,53.6,30.2,41,30.31,10.0,NW,9.2,-,N/A,,Clear,320,2013-03-09 17:46:00
2:54 PM,57.2,30.2,36,30.28,10.0,NW,9.2,-,N/A,,Clear,320,2013-03-09 19:54:00
3:55 PM,57.2,28.4,33,30.29,10.0,NW,10.4,-,N/A,,Clear,320,2013-03-09 20:55:00
4:55 PM,57.2,26.6,31,30.29,10.0,North,3.5,-,N/A,,Clear,10,2013-03-09 21:55:00
5:54 PM,51.8,28.4,41,30.29,10.0,NW,3.5,-,N/A,,Clear,310,2013-03-09 22:54:00
6:50 PM,48.2,26.6,43,30.30,10.0,Calm,Calm,-,N/A,,Clear,0,2013-03-09 23:50:00
7:50 PM,44.6,28.4,53,30.31,10.0,Calm,Calm,-,N/A,,Clear,0,2013-03-10 00:50:00
8:52 PM,41.0,26.6,57,30.31,10.0,Calm,Calm,-,N/A,,Clear,0,2013-03-10 01:52:00
9:58 PM,39.6,29.8,68,30.32,10.0,Calm,Calm,-,N/A,,Clear,0,2013-03-10 02:58:00
10:18 PM,37.6,30.2,75,30.33,10.0,Calm,Calm,-,N/A,,Clear,0,2013-03-10 03:18:00
10:38 PM,36.0,29.7,78,30.33,10.0,Calm,Calm,-,N/A,,Clear,0,2013-03-10 03:38:00
10:58 PM,35.1,30.0,82,30.34,10.0,Calm,Calm,-,N/A,,Clear,0,2013-03-10 03:58:00
11:18 PM,35.6,29.3,78,30.34,10.0,Calm,Calm,-,N/A,,Clear,0,2013-03-10 04:18:00
11:38 PM,34.7,29.1,80,30.34,10.0,ESE,3.5,-,N/A,,Clear,120,2013-03-10 04:38:00
11:58 PM,32.7,29.7,88,30.34,10.0,Calm,Calm,-,N/A,,Clear,0,2013-03-10 04:58:00